FW5682 Weather Reports


Display with metric or nautical units.
time (UTC)temp
F
wind
direction
speed
MPH
gust
MPH
rain 1hr
in
rain 24hr
in
rain mn
in
humidity
%
barometer
mb
20260507081937 44 154 2.0 6.0 0.00 0.00 0.00 89 1013.7
20260507081215 44 158 3.0 6.0 0.00 0.00 0.00 89 1013.7
20260507080712 44 158 3.0 6.0 0.00 0.00 0.00 89 1013.7
20260507080212 44 159 5.0 6.0 0.00 0.00 0.00 89 1013.7
20260507075713 44 147 4.0 6.0 0.00 0.00 0.00 89 1013.7
20260507075212 44 147 4.0 7.0 0.00 0.00 0.00 89 1013.7
20260507074710 44 149 2.0 7.0 0.00 0.00 0.00 89 1013.7
20260507074208 44 155 4.0 9.0 0.00 0.00 0.00 90 1013.7
20260507073707 44 147 4.0 9.0 0.00 0.00 0.00 90 1013.7
20260507073213 43 141 4.0 6.0 0.00 0.00 0.00 90 1013.6
20260507072709 43 121 4.0 6.0 0.00 0.00 0.00 90 1013.7
20260507072207 43 161 4.0 6.0 0.00 0.00 0.00 90 1013.7
20260507071706 43 155 3.0 4.0 0.00 0.00 0.00 91 1013.7
20260507071206 43 154 2.0 6.0 0.00 0.00 0.00 91 1013.7
20260507070706 42 154 3.0 6.0 0.00 0.00 0.00 91 1013.6
20260507070205 42 159 3.0 5.0 0.00 0.00 0.00 91 1013.6
20260507065706 42 159 4.0 6.0 0.00 0.00 0.00 92 1013.5
20260507065205 42 161 3.0 6.0 0.00 0.00 0.00 92 1013.6
20260507064705 42 162 4.0 5.0 0.00 0.00 0.00 92 1013.5
20260507064205 41 159 4.0 5.0 0.00 0.00 0.00 92 1013.5
20260507063706 41 157 3.0 6.0 0.00 0.00 0.00 92 1013.5
20260507063207 41 158 3.0 6.0 0.00 0.00 0.00 93 1013.5
20260507062705 40 157 3.0 5.0 0.00 0.00 0.00 93 1013.5
20260507062206 40 158 3.0 5.0 0.00 0.00 0.00 93 1013.5
20260507061705 40 158 4.0 6.0 0.00 0.00 0.00 93 1013.4
20260507061205 40 158 4.0 6.0 0.00 0.00 0.00 93 1013.5
20260507060706 40 117 2.0 3.0 0.00 0.00 0.00 93 1013.3
20260507060205 39 116 2.0 5.0 0.00 0.00 0.00 93 1013.3
20260507055705 39 116 2.0 5.0 0.00 0.00 0.00 93 1013.3
20260507055205 39 114 4.0 5.0 0.00 0.00 0.00 93 1013.3
20260507054706 39 111 2.0 4.0 0.00 0.00 0.00 93 1013.3
20260507054205 39 111 2.0 4.0 0.00 0.00 0.00 93 1013.3
20260507053705 39 111 3.0 4.0 0.00 0.00 0.00 93 1013.3
20260507053205 39 110 2.0 4.0 0.00 0.00 0.00 93 1013.2
20260507052705 39 110 2.0 4.0 0.00 0.00 0.00 93 1013.2
20260507052209 39 109 2.0 4.0 0.00 0.00 0.00 93 1013.1
20260507051707 39 109 1.0 4.0 0.00 0.00 0.00 94 1013.1
20260507051205 39 109 2.0 3.0 0.00 0.00 0.00 94 1013.2
20260507050709 39 107 2.0 3.0 0.00 0.00 0.00 94 1013.1
20260507050205 39 107 2.0 3.0 0.00 0.00 0.00 94 1013.2
20260507045704 38 107 1.0 3.0 0.00 0.00 0.00 94 1013.2
20260507045205 38 107 2.0 3.0 0.00 0.00 0.00 94 1013.2
20260507044705 38 107 1.0 2.0 0.00 0.00 0.00 94 1013.2
20260507044205 38 107 1.0 2.0 0.00 0.00 0.00 94 1013.2
20260507043933 38 107 1.0 2.0 0.00 0.00 0.00 94 1013.1
20260507043205 38 107 0.0 2.0 0.00 0.00 0.00 94 1013.1
20260507042926 38 107 0.0 3.0 0.00 0.00 0.00 94 1013.2
20260507042206 38 107 1.0 3.0 0.00 0.00 0.00 94 1013.2
20260507041705 37 107 2.0 2.0 0.00 0.00 0.00 94 1013.1
20260507041205 37 107 1.0 2.0 0.00 0.00 0.00 94 1013.1
20260507040705 37 107 0.0 2.0 0.00 0.00 0.00 93 1013.2
20260507040427 37 107 0.0 2.0 0.00 0.00 0.00 93 1013.2
20260507035704 37 107 1.0 2.0 0.00 0.00 0.00 93 1013.2
20260507035205 37 107 0.0 2.0 0.00 0.00 0.00 93 1013.1
20260507034706 37 107 1.0 2.0 0.00 0.00 0.00 93 1013.3
20260507034206 36 107 0.0 2.0 0.00 0.00 0.00 93 1013.1
20260507033705 36 107 1.0 2.0 0.00 0.00 0.00 93 1013.2
20260507032705 36 107 1.0 2.0 0.00 0.00 0.00 93 1013.2
20260507032204 36 107 0.0 2.0 0.00 0.00 0.00 93 1013.3
20260507031924 36 107 1.0 2.0 0.00 0.00 0.00 93 1013.3
20260507031205 36 107 0.0 0.0 0.00 0.00 0.00 93 1013.3
20260507030932 35 107 0.0 0.0 0.00 0.00 0.00 93 1013.3
20260507030205 35 107 0.0 0.0 0.00 0.00 0.00 93 1013.4
20260507025930 35 107 0.0 0.0 0.00 0.00 0.00 93 1013.4
20260507025201 35 107 0.0 0.0 0.00 0.00 0.00 93 1013.3
20260507024705 35 107 0.0 1.0 0.00 0.00 0.00 93 1013.4
20260507023704 35 107 1.0 1.0 0.00 0.00 0.00 92 1013.5
20260507023206 35 107 1.0 1.0 0.00 0.00 0.00 92 1013.4
20260507022705 34 107 0.0 2.0 0.00 0.00 0.00 92 1013.4
20260507022204 34 107 1.0 2.0 0.00 0.00 0.00 92 1013.3
20260507021705 34 107 0.0 1.0 0.00 0.00 0.00 92 1013.3
20260507021205 34 107 0.0 2.0 0.00 0.00 0.00 92 1013.3
20260507020705 34 107 1.0 2.0 0.00 0.00 0.00 92 1013.4
20260507020204 34 107 0.0 0.0 0.00 0.00 0.00 92 1013.4
20260507015705 34 107 0.0 0.0 0.00 0.00 0.00 92 1013.4
20260507015204 34 107 0.0 1.0 0.00 0.00 0.00 91 1013.4
20260507014704 34 107 0.0 2.0 0.00 0.00 0.00 91 1013.4
20260507014205 34 107 1.0 2.0 0.00 0.00 0.00 91 1013.5
20260507013705 34 107 1.0 2.0 0.00 0.00 0.00 91 1013.4
20260507013205 34 107 2.0 2.0 0.00 0.00 0.00 91 1013.4
20260507012704 34 107 2.0 2.0 0.00 0.00 0.00 91 1013.6
20260507012204 34 107 0.0 2.0 0.00 0.00 0.00 91 1013.6
20260507011705 34 107 0.0 2.0 0.00 0.00 0.00 91 1013.6
20260507011423 34 107 1.0 2.0 0.00 0.00 0.00 91 1013.4
20260507010707 34 107 1.0 2.0 0.00 0.00 0.00 91 1013.5
20260507010205 34 107 2.0 2.0 0.00 0.00 0.00 91 1013.6
20260507005705 34 107 0.0 2.0 0.00 0.00 0.00 91 1013.5
20260507005204 35 107 1.0 2.0 0.00 0.00 0.00 91 1013.6
20260507004705 35 107 1.0 2.0 0.00 0.00 0.00 91 1013.6
20260507004205 35 107 1.0 2.0 0.00 0.00 0.00 91 1013.6
20260507003705 35 107 1.0 2.0 0.00 0.00 0.00 90 1013.6
20260507003205 35 107 0.0 1.0 0.00 0.00 0.00 90 1013.6
20260507002705 35 107 0.0 2.0 0.00 0.00 0.00 91 1013.6
20260507002205 35 107 0.0 2.0 0.00 0.00 0.00 91 1013.6
20260507001706 35 107 1.0 2.0 0.00 0.00 0.00 90 1013.6
20260507001205 35 107 1.0 2.0 0.00 0.00 0.00 90 1013.6
20260507000704 35 107 1.0 2.0 0.00 0.00 0.00 90 1013.7
20260507000205 35 107 1.0 2.0 0.00 0.00 0.00 90 1013.7
20260506235705 35 107 2.0 2.0 0.00 0.00 0.00 90 1013.8
20260506235205 35 107 0.0 1.0 0.00 0.00 0.00 90 1013.8
20260506234705 36 107 0.0 1.0 0.00 0.00 0.00 90 1013.9
20260506234204 36 107 0.0 1.0 0.00 0.00 0.00 90 1013.9
20260506233923 36 107 0.0 1.0 0.00 0.00 0.00 90 1013.9
20260506233205 36 107 0.0 1.0 0.00 0.00 0.00 89 1013.9
20260506232707 36 107 0.0 0.0 0.00 0.00 0.00 89 1013.9
20260506232210 36 107 0.0 0.0 0.00 0.00 0.00 89 1013.9
20260506231928 36 107 0.0 1.0 0.00 0.00 0.00 89 1013.9
20260506231434 36 107 0.0 1.0 0.00 0.00 0.00 89 1013.9
20260506230705 36 107 0.0 1.0 0.00 0.00 0.00 89 1013.9
20260506230206 36 107 0.0 0.0 0.00 0.00 0.00 89 1013.9
20260506225704 37 107 0.0 0.0 0.00 0.00 0.00 88 1014.0
20260506225433 37 107 0.0 0.0 0.00 0.00 0.00 88 1013.9
20260506224919 37 107 0.0 0.0 0.00 0.00 0.00 88 1013.9
20260506224202 37 107 0.0 0.0 0.00 0.00 0.00 88 1013.9
20260506223700 37 107 0.0 0.0 0.00 0.00 0.00 88 1013.9
20260506223421 38 107 0.0 1.0 0.00 0.00 0.00 88 1013.9
20260506222658 38 107 0.0 2.0 0.00 0.00 0.00 87 1013.8
20260506222159 38 107 1.0 2.0 0.00 0.00 0.00 87 1013.8
20260506221657 38 107 2.0 2.0 0.00 0.00 0.00 87 1013.8
20260506221155 38 107 1.0 2.0 0.00 0.00 0.00 87 1013.7
20260506220658 38 107 0.0 2.0 0.00 0.00 0.00 86 1013.7
20260506220422 38 107 0.0 0.0 0.00 0.00 0.00 86 1013.7
20260506215656 38 107 0.0 0.0 0.00 0.00 0.00 85 1013.8
20260506215156 39 107 0.0 0.0 0.00 0.00 0.00 85 1013.7
20260506214914 39 107 0.0 1.0 0.00 0.00 0.00 84 1013.8
20260506214157 39 107 1.0 2.0 0.00 0.00 0.00 84 1013.7
20260506213656 39 107 1.0 2.0 0.00 0.00 0.00 83 1013.6
20260506213414 40 107 1.0 2.0 0.00 0.00 0.00 83 1013.7
20260506212652 40 107 1.0 3.0 0.00 0.00 0.00 82 1013.7
20260506212151 40 107 1.0 3.0 0.00 0.00 0.00 82 1013.7
20260506211648 41 107 2.0 3.0 0.00 0.00 0.00 82 1013.8
20260506211145 41 107 2.0 3.0 0.00 0.00 0.00 82 1013.7
20260506210907 41 107 1.0 3.0 0.00 0.00 0.00 82 1013.8
20260506210144 42 107 1.0 3.0 0.00 0.00 0.00 81 1013.9
20260506205913 42 107 2.0 3.0 0.00 0.00 0.00 81 1013.9
20260506205142 42 107 1.0 3.0 0.00 0.00 0.00 81 1013.8
20260506204642 42 107 2.0 4.0 0.00 0.00 0.00 80 1013.8
20260506204143 43 107 3.0 4.0 0.00 0.00 0.00 80 1013.8
20260506203641 43 107 2.0 5.0 0.00 0.00 0.00 79 1013.7
20260506203138 43 107 2.0 5.0 0.00 0.00 0.00 79 1013.8
20260506202638 43 107 2.0 5.0 0.00 0.00 0.00 79 1013.8
20260506202138 44 109 3.0 10.0 0.00 0.00 0.00 79 1013.6
20260506201638 44 110 3.0 10.0 0.00 0.00 0.00 79 1013.6
20260506201136 44 117 5.0 7.0 0.00 0.00 0.00 79 1013.4
20260506200637 44 117 4.0 9.0 0.00 0.00 0.00 78 1013.3
20260506200135 45 111 5.0 9.0 0.00 0.00 0.00 78 1013.4
20260506195634 45 123 5.0 7.0 0.00 0.00 0.00 78 1013.4
20260506195134 45 123 5.0 10.0 0.00 0.00 0.00 77 1013.4
20260506194634 45 133 5.0 10.0 0.00 0.00 0.00 77 1013.3
20260506194133 45 123 6.0 10.0 0.00 0.00 0.00 77 1013.3
20260506193858 46 86 4.0 10.0 0.00 0.00 0.00 77 1013.3
20260506193135 46 87 6.0 12.0 0.00 0.00 0.00 76 1013.3
20260506192634 46 104 4.0 12.0 0.00 0.00 0.00 75 1013.2
20260506192134 47 96 5.0 12.0 0.00 0.00 0.00 75 1013.2
20260506191634 47 65 7.0 12.0 0.00 0.00 0.00 75 1013.1
20260506191135 47 100 5.0 10.0 0.00 0.00 0.00 75 1012.9
20260506190633 48 113 5.0 11.0 0.00 0.00 0.00 74 1012.9
20260506190134 48 92 7.0 11.0 0.00 0.00 0.00 74 1013.0
20260506185634 48 76 6.0 11.0 0.00 0.00 0.00 74 1012.9
20260506185135 48 113 6.0 11.0 0.00 0.00 0.00 74 1013.0
20260506184633 48 116 7.0 10.0 0.00 0.00 0.00 74 1013.0
20260506184133 48 83 5.0 10.0 0.00 0.00 0.00 73 1013.0
20260506183634 48 133 6.0 10.0 0.00 0.00 0.00 72 1013.0
20260506183134 48 90 6.0 9.0 0.00 0.00 0.00 71 1013.0
20260506182634 49 109 3.0 9.0 0.00 0.00 0.00 71 1012.9
20260506182133 49 83 4.0 7.0 0.00 0.00 0.00 70 1012.8
20260506181634 49 120 3.0 5.0 0.00 0.00 0.00 71 1012.9
20260506181134 49 121 4.0 5.0 0.00 0.00 0.00 70 1012.8
20260506180634 49 118 3.0 5.0 0.00 0.00 0.00 71 1012.8
20260506180135 49 120 3.0 5.0 0.00 0.00 0.00 70 1012.8
20260506175634 49 120 2.0 6.0 0.00 0.00 0.00 69 1012.9
20260506175134 49 120 4.0 6.0 0.00 0.00 0.00 70 1012.9
20260506174634 49 121 4.0 6.0 0.00 0.00 0.00 70 1012.8
20260506174134 49 107 2.0 7.0 0.00 0.00 0.00 70 1012.7
20260506173634 49 99 4.0 7.0 0.00 0.00 0.00 69 1012.7
20260506173135 50 93 2.0 4.0 0.00 0.00 0.00 71 1012.7
20260506172634 49 89 2.0 7.0 0.00 0.00 0.00 70 1012.7
20260506172354 49 86 3.0 7.0 0.00 0.00 0.00 69 1012.7
20260506171857 49 89 4.0 6.0 0.00 0.00 0.00 71 1012.7
20260506171132 49 121 3.0 6.0 0.00 0.00 0.00 71 1012.8
20260506170643 49 121 3.0 6.0 0.00 0.00 0.00 70 1012.8
20260506170130 49 97 4.0 6.0 0.00 0.00 0.00 70 1012.9
20260506165629 49 94 5.0 6.0 0.00 0.00 0.00 70 1012.8
20260506165129 49 109 3.0 6.0 0.00 0.00 0.00 70 1012.7
20260506164628 49 110 4.0 9.0 0.00 0.00 0.00 71 1012.8
20260506164129 49 92 6.0 9.0 0.00 0.00 0.00 70 1012.8
20260506163627 49 63 5.0 7.0 0.00 0.00 0.00 71 1012.8
20260506163345 49 92 4.0 9.0 0.00 0.00 0.00 71 1012.9
20260506162627 49 65 5.0 9.0 0.00 0.00 0.00 70 1012.9
20260506162126 49 106 4.0 10.0 0.00 0.00 0.00 70 1012.9
20260506161625 49 79 6.0 10.0 0.00 0.00 0.00 70 1012.8
20260506161125 49 100 5.0 7.0 0.00 0.00 0.00 70 1012.9
20260506160625 49 79 4.0 10.0 0.00 0.00 0.00 71 1012.8
20260506160126 49 94 5.0 10.0 0.00 0.00 0.00 70 1012.9
20260506155850 49 86 4.0 12.0 0.00 0.00 0.00 71 1012.8
20260506155122 49 68 7.0 12.0 0.00 0.00 0.00 69 1012.9
20260506154620 49 56 6.0 10.0 0.00 0.00 0.00 70 1012.8
20260506154121 49 102 6.0 12.0 0.00 0.00 0.00 70 1012.8
20260506153621 50 28 7.0 12.0 0.00 0.00 0.00 68 1012.8
20260506153347 50 89 6.0 12.0 0.00 0.00 0.00 68 1012.7
20260506152620 50 128 5.0 12.0 0.00 0.00 0.00 67 1012.8
20260506152117 50 96 6.0 12.0 0.00 0.00 0.00 66 1012.8
20260506151616 51 87 7.0 11.0 0.00 0.00 0.00 66 1012.8
20260506151117 51 80 5.0 10.0 0.00 0.00 0.00 66 1012.8
20260506150617 51 125 6.0 11.0 0.00 0.00 0.00 65 1012.8
20260506150116 51 125 6.0 11.0 0.00 0.00 0.00 64 1012.8
20260506145614 51 131 7.0 11.0 0.00 0.00 0.00 64 1012.8
20260506145115 51 134 4.0 7.0 0.00 0.00 0.00 62 1012.8
20260506144616 51 118 2.0 10.0 0.00 0.00 0.00 63 1012.8
20260506144339 51 141 5.0 10.0 0.00 0.00 0.00 63 1012.8
20260506143613 51 140 6.0 9.0 0.00 0.00 0.00 62 1012.8
20260506143112 51 102 2.0 7.0 0.00 0.00 0.00 61 1012.8
20260506142610 51 62 2.0 10.0 0.00 0.00 0.00 60 1012.7
20260506142110 51 58 3.0 10.0 0.00 0.00 0.00 62 1012.9
20260506141608 52 97 3.0 10.0 0.00 0.00 0.00 62 1012.9
20260506140607 52 61 6.0 9.0 0.00 0.00 0.00 62 1012.8
20260506140107 52 137 6.0 10.0 0.00 0.00 0.00 62 1012.9
20260506135608 52 118 6.0 10.0 0.00 0.00 0.00 64 1012.9
20260506135106 52 54 3.0 9.0 0.00 0.00 0.00 60 1012.9
20260506134607 52 69 3.0 7.0 0.00 0.00 0.00 63 1012.9
20260506134105 51 68 5.0 7.0 0.00 0.00 0.00 63 1012.9
20260506133606 51 35 2.0 7.0 0.00 0.00 0.00 59 1012.9
20260506133105 51 69 1.0 10.0 0.00 0.00 0.00 62 1012.8
20260506132605 51 34 6.0 10.0 0.00 0.00 0.00 61 1013.0
20260506132106 51 52 4.0 10.0 0.00 0.00 0.00 62 1013.0
20260506131606 51 0 6.0 10.0 0.00 0.00 0.00 63 1013.1
20260506131105 51 89 4.0 9.0 0.00 0.00 0.00 63 1013.0
20260506130605 51 34 5.0 9.0 0.00 0.00 0.00 60 1013.0
20260506130107 51 41 4.0 11.0 0.00 0.00 0.00 63 1013.0
20260506125606 51 23 5.0 11.0 0.00 0.00 0.00 63 1013.1
20260506125106 51 62 4.0 11.0 0.00 0.00 0.00 64 1013.0
20260506124605 51 25 6.0 11.0 0.00 0.00 0.00 63 1012.9
20260506123604 51 42 6.0 11.0 0.00 0.00 0.00 62 1012.9
20260506123105 51 80 3.0 10.0 0.00 0.00 0.00 61 1013.0
20260506122105 51 135 5.0 7.0 0.00 0.00 0.00 63 1012.9
20260506121605 52 92 3.0 9.0 0.00 0.00 0.00 63 1013.0
20260506121105 52 94 5.0 9.0 0.00 0.00 0.00 62 1013.0
20260506120605 52 130 5.0 11.0 0.00 0.00 0.00 60 1013.0
20260506120324 52 111 6.0 11.0 0.00 0.00 0.00 60 1013.0
20260506115604 54 58 6.0 12.0 0.00 0.00 0.00 60 1013.1
20260506115105 53 68 3.0 12.0 0.00 0.00 0.00 59 1013.0
20260506114605 53 69 6.0 12.0 0.00 0.00 0.00 62 1013.2
20260506114106 52 121 7.0 12.0 0.00 0.00 0.00 64 1013.2
20260506113606 50 65 7.0 12.0 0.00 0.00 0.00 64 1013.2
20260506113329 50 47 5.0 12.0 0.00 0.00 0.00 64 1013.2
20260506112605 51 48 7.0 10.0 0.00 0.00 0.00 66 1013.2
20260506111602 51 37 6.0 10.0 0.00 0.00 0.00 62 1013.2
20260506111103 51 82 5.0 9.0 0.00 0.00 0.00 62 1013.1
20260506110058 52 44 6.0 14.0 0.00 0.00 0.00 61 1013.2
20260506105556 53 154 4.0 13.0 0.00 0.00 0.00 62 1013.2
20260506105318 52 131 8.0 13.0 0.00 0.00 0.00 63 1013.2
20260506104053 52 30 8.0 13.0 0.00 0.00 0.00 61 1013.3
20260506103819 53 0 6.0 12.0 0.00 0.00 0.00 65 1013.3
20260506103313 52 63 6.0 16.0 0.00 0.00 0.00 65 1013.3
20260506102552 51 63 9.0 16.0 0.00 0.00 0.00 64 1013.3
20260506102052 51 79 8.0 14.0 0.00 0.00 0.00 70 1013.3
20260506101551 49 56 5.0 14.0 0.00 0.00 0.00 69 1013.4
20260506101049 50 52 9.0 14.0 0.00 0.00 0.00 69 1013.3
20260506100549 50 0 5.0 13.0 0.00 0.00 0.00 69 1013.3
20260506095816 51 0 4.0 13.0 0.00 0.00 0.00 70 1013.3
20260506095047 51 103 6.0 13.0 0.00 0.00 0.00 68 1013.3
20260506094547 50 76 6.0 16.0 0.00 0.00 0.00 69 1013.4
20260506094046 51 78 7.0 16.0 0.00 0.00 0.00 69 1013.4
20260506093547 50 69 8.0 13.0 0.00 0.00 0.00 69 1013.5
20260506093047 49 56 9.0 16.0 0.00 0.00 0.00 70 1013.6
20260506092549 50 23 9.0 16.0 0.00 0.00 0.00 69 1013.5
20260506092309 49 121 8.0 15.0 0.00 0.00 0.00 73 1013.5
20260506091806 48 37 7.0 12.0 0.00 0.00 0.00 74 1013.5
20260506091046 48 44 8.0 14.0 0.00 0.00 0.00 73 1013.5
20260506090547 48 30 9.0 14.0 0.00 0.00 0.00 72 1013.5
20260506090046 49 0 8.0 15.0 0.00 0.00 0.00 73 1013.6
20260506085540 49 38 7.0 14.0 0.00 0.00 0.00 72 1013.6
20260506085039 48 27 8.0 13.0 0.00 0.00 0.00 71 1013.5
20260506084540 48 0 8.0 19.0 0.00 0.00 0.00 72 1013.5
20260506084040 48 11 11.0 19.0 0.00 0.00 0.00 72 1013.6
20260506083038 48 7 6.0 17.0 0.00 0.00 0.00 74 1013.5
20260506082752 48 14 10.0 17.0 0.00 0.00 0.00 75 1013.6